Location: Béaulencourt
(50.0796°N, 2.8795°E)
Time: 05:59:58
(UTC+00:00)

IRS-1C - Pass Details

Date: 20 January 2026
Orbit: 813 x 814 km, 99.0° (Epoch: 18 February)

Event Time Altitude Azimuth Distance (km) Brightness Sun altitude
Rises 06:57:45 0° 14° (NNE) 3,351 7.2 -6.4°
Reaches altitude 10° 07:00:06 10° 13° (NNE) 2,414 6.5 -6.1°
Maximum altitude 07:05:26 77° 289° (WNW) 841 4.1 -5.3°
Drops below altitude 10° 07:10:43 10° 204° (SSW) 2,397 6.6 -4.5°
Sets 07:13:03 0° 203° (SSW) 3,324 7.4 -4.2°
